Location: ??
(35.5653°N, 139.6194°E)
Time: 02:13:20
(UTC+00:00)

SKYMED 2 - Pass Details

Date: 20 November 2019
Orbit: 621 x 623 km, 97.9° (Epoch: 13 December)

Event Time Altitude Azimuth Distance (km) Brightness Sun altitude
Rises 19:49:53 0° 161° (SSE) 2,888 7.4 -18.7°
Reaches altitude 10° 19:52:04 10° 160° (SSE) 1,985 6.6 -18.3°
Maximum altitude 19:56:22 71° 76° (ENE) 659 3.8 -17.4°
Drops below altitude 10° 20:00:42 10° 353° (N) 1,998 6.0 -16.6°
Sets 20:02:54 0° 351° (N) 2,908 6.8 -16.1°
